| time (UTC) | temp F | wind direction | speed MPH | gust MPH | rain 1hr in | rain 24hr in | rain mn in | humidity % | barometer mb |
| 20260510224418 | 60 | 282 | 0.0 | 0.0 | 0.19 | 0.14 | 0.14 | 94 | 1031.4 |
| 20260510224204 | 60 | 282 | 0.0 | 0.0 | 0.05 | 0.33 | 0.13 | 93 | 1014.9 |
| 20260510223909 | 61 | 294 | 0.0 | 0.0 | 0.12 | 0.12 | 0.12 | 92 | 1031.4 |
| 20260510223703 | 61 | 305 | 0.0 | 0.0 | 0.04 | 0.32 | 0.12 | 91 | 1014.6 |
| 20260510223407 | 61 | 313 | 0.0 | 0.0 | 0.19 | 0.11 | 0.11 | 90 | 1031.3 |
| 20260510223204 | 62 | 309 | 0.0 | 0.0 | 0.03 | 0.31 | 0.11 | 88 | 1014.7 |
| 20260510222904 | 62 | 325 | 0.0 | 0.0 | 0.14 | 0.10 | 0.10 | 87 | 1031.5 |
| 20260510222703 | 62 | 301 | 0.0 | 0.0 | 0.01 | 0.29 | 0.09 | 85 | 1014.7 |
| 20260510222402 | 63 | 295 | 0.0 | 0.0 | 0.00 | 0.08 | 0.08 | 84 | 1031.2 |
| 20260510222203 | 63 | 301 | 0.0 | 0.0 | 0.00 | 0.28 | 0.08 | 83 | 1014.4 |
| 20260510221856 | 63 | 321 | 0.0 | 0.0 | 0.00 | 0.08 | 0.08 | 82 | 1031.0 |
| 20260510221353 | 64 | 321 | 0.0 | 0.0 | 0.00 | 0.08 | 0.08 | 81 | 1030.7 |
| 20260510221205 | 64 | 321 | 0.0 | 0.0 | 0.00 | 0.28 | 0.08 | 80 | 1013.8 |
| 20260510220850 | 64 | 323 | 0.0 | 0.0 | 0.00 | 0.08 | 0.08 | 80 | 1030.5 |
| 20260510220346 | 64 | 321 | 0.0 | 2.0 | 0.00 | 0.08 | 0.08 | 79 | 1030.4 |
| 20260510220203 | 64 | 284 | 0.0 | 3.0 | 0.00 | 0.28 | 0.08 | 80 | 1013.8 |
| 20260510215842 | 64 | 286 | 0.0 | 0.0 | 0.00 | 0.08 | 0.08 | 79 | 1030.5 |
| 20260510215705 | 64 | 316 | 0.0 | 3.0 | 0.00 | 0.28 | 0.08 | 80 | 1013.9 |
| 20260510215340 | 64 | 330 | 0.0 | 0.0 | 0.00 | 0.08 | 0.08 | 79 | 1030.6 |
| 20260510215204 | 64 | 330 | 0.0 | 0.0 | 0.00 | 0.28 | 0.08 | 79 | 1014.0 |
| 20260510214837 | 65 | 331 | 0.0 | 0.0 | 0.00 | 0.08 | 0.08 | 79 | 1030.6 |
| 20260510214334 | 65 | 335 | 0.0 | 0.0 | 0.00 | 0.08 | 0.08 | 78 | 1030.4 |
| 20260510214203 | 65 | 20 | 0.0 | 0.0 | 0.00 | 0.28 | 0.08 | 78 | 1013.6 |
| 20260510213831 | 65 | 3 | 0.0 | 0.0 | 0.00 | 0.08 | 0.08 | 78 | 1030.2 |
| 20260510213703 | 65 | 3 | 0.0 | 5.0 | 0.00 | 0.28 | 0.08 | 78 | 1013.5 |
| 20260510213328 | 65 | 2 | 0.0 | 5.0 | 0.00 | 0.08 | 0.08 | 78 | 1030.2 |
| 20260510213204 | 65 | 358 | 0.0 | 3.0 | 0.00 | 0.28 | 0.08 | 78 | 1013.5 |
| 20260510212824 | 66 | 358 | 0.0 | 0.0 | 0.00 | 0.08 | 0.08 | 78 | 1029.9 |
| 20260510212704 | 66 | 339 | 1.0 | 7.0 | 0.00 | 0.28 | 0.08 | 77 | 1013.3 |
| 20260510212321 | 66 | 345 | 2.0 | 3.0 | 0.00 | 0.08 | 0.08 | 76 | 1029.9 |
| 20260510212203 | 66 | 18 | 1.0 | 7.0 | 0.00 | 0.28 | 0.08 | 76 | 1013.3 |
| 20260510211818 | 66 | 288 | 0.0 | 5.0 | 0.00 | 0.08 | 0.08 | 75 | 1030.1 |
| 20260510211703 | 66 | 299 | 0.0 | 8.0 | 0.00 | 0.28 | 0.08 | 75 | 1013.2 |
| 20260510211314 | 66 | 330 | 0.0 | 8.0 | 0.00 | 0.08 | 0.08 | 76 | 1030.0 |
| 20260510211204 | 66 | 346 | 1.0 | 8.0 | 0.00 | 0.28 | 0.08 | 76 | 1013.3 |
| 20260510210810 | 67 | 324 | 0.0 | 5.0 | 0.00 | 0.08 | 0.08 | 75 | 1030.0 |
| 20260510210704 | 67 | 318 | 0.0 | 7.0 | 0.00 | 0.28 | 0.08 | 77 | 1013.4 |
| 20260510210305 | 67 | 318 | 0.0 | 7.0 | 0.00 | 0.08 | 0.08 | 75 | 1029.9 |
| 20260510210203 | 67 | 5 | 2.0 | 7.0 | 0.00 | 0.28 | 0.08 | 75 | 1013.3 |
| 20260510205804 | 67 | 341 | 0.0 | 2.0 | 0.00 | 0.08 | 0.08 | 75 | 1030.1 |
| 20260510205300 | 67 | 342 | 1.0 | 2.0 | 0.00 | 0.08 | 0.08 | 74 | 1030.1 |
| 20260510204756 | 68 | 322 | 0.0 | 10.0 | 0.00 | 0.08 | 0.08 | 73 | 1029.9 |
| 20260510204253 | 68 | 333 | 4.0 | 7.0 | 0.00 | 0.08 | 0.08 | 72 | 1029.8 |
| 20260510204204 | 68 | 315 | 3.0 | 9.0 | 0.00 | 0.28 | 0.08 | 71 | 1013.0 |
| 20260510203749 | 69 | 317 | 2.0 | 5.0 | 0.00 | 0.08 | 0.08 | 71 | 1029.6 |
| 20260510203704 | 69 | 300 | 1.0 | 7.0 | 0.00 | 0.28 | 0.08 | 71 | 1012.7 |
| 20260510203247 | 70 | 335 | 4.0 | 7.0 | 0.00 | 0.08 | 0.08 | 70 | 1029.4 |
| 20260510203203 | 70 | 325 | 0.0 | 8.0 | 0.00 | 0.28 | 0.08 | 69 | 1012.7 |
| 20260510202746 | 70 | 322 | 5.0 | 8.0 | 0.00 | 0.08 | 0.08 | 70 | 1029.6 |
| 20260510202703 | 70 | 335 | 0.0 | 5.0 | 0.07 | 0.28 | 0.08 | 68 | 1012.7 |
| 20260510202242 | 70 | 180 | 0.0 | 0.0 | 0.00 | 0.08 | 0.08 | 67 | 1029.4 |
| 20260510202204 | 70 | 330 | 2.0 | 9.0 | 0.07 | 0.28 | 0.08 | 67 | 1012.9 |
| 20260510201740 | 70 | 296 | 0.0 | 0.0 | 0.00 | 0.08 | 0.08 | 70 | 1029.5 |
| 20260510201704 | 70 | 294 | 3.0 | 12.0 | 0.07 | 0.28 | 0.08 | 68 | 1013.0 |
| 20260510201236 | 70 | 315 | 0.0 | 2.0 | 0.00 | 0.08 | 0.08 | 67 | 1029.6 |
| 20260510200733 | 70 | 326 | 2.0 | 5.0 | 0.00 | 0.08 | 0.08 | 66 | 1029.7 |
| 20260510200704 | 70 | 306 | 0.0 | 5.0 | 0.07 | 0.28 | 0.08 | 67 | 1012.9 |
| 20260510200231 | 71 | 313 | 3.0 | 5.0 | 0.00 | 0.08 | 0.08 | 66 | 1029.7 |
| 20260510200204 | 71 | 309 | 1.0 | 9.0 | 0.07 | 0.28 | 0.08 | 66 | 1012.9 |
| 20260510195727 | 71 | 344 | 5.0 | 7.0 | 0.00 | 0.08 | 0.08 | 65 | 1029.7 |
| 20260510195703 | 71 | 332 | 0.0 | 12.0 | 0.07 | 0.28 | 0.08 | 67 | 1013.2 |
| 20260510195224 | 72 | 348 | 1.0 | 2.0 | 0.00 | 0.08 | 0.08 | 67 | 1029.8 |
| 20260510195203 | 72 | 347 | 0.0 | 5.0 | 0.07 | 0.28 | 0.08 | 67 | 1013.1 |
| 20260510194723 | 72 | 348 | 1.0 | 5.0 | 0.00 | 0.08 | 0.08 | 65 | 1029.6 |
| 20260510194704 | 72 | 325 | 0.0 | 8.0 | 0.07 | 0.28 | 0.08 | 66 | 1012.9 |
| 20260510194220 | 73 | 356 | 5.0 | 8.0 | 0.00 | 0.08 | 0.08 | 67 | 1030.0 |
| 20260510193715 | 73 | 301 | 1.0 | 3.0 | 0.40 | 0.08 | 0.08 | 64 | 1029.8 |
| 20260510193704 | 73 | 294 | 2.0 | 8.0 | 0.07 | 0.28 | 0.08 | 64 | 1013.1 |
| 20260510193210 | 74 | 337 | 3.0 | 5.0 | 0.40 | 0.08 | 0.08 | 65 | 1029.8 |
| 20260510192706 | 73 | 356 | 0.0 | 5.0 | 0.00 | 0.01 | 0.01 | 66 | 1030.0 |
| 20260510192704 | 73 | 355 | 1.0 | 5.0 | 0.00 | 0.21 | 0.01 | 68 | 1013.3 |
| 20260510192201 | 72 | 31 | 0.0 | 0.0 | 0.00 | 0.01 | 0.01 | 69 | 1029.5 |
| 20260510191704 | 72 | 328 | 0.0 | 7.0 | 0.00 | 0.21 | 0.01 | 69 | 1013.1 |
| 20260510191657 | 72 | 329 | 0.0 | 2.0 | 0.00 | 0.01 | 0.01 | 67 | 1029.8 |
| 20260510191204 | 72 | 306 | 3.0 | 7.0 | 0.00 | 0.21 | 0.01 | 67 | 1013.2 |
| 20260510191155 | 72 | 307 | 1.0 | 7.0 | 0.00 | 0.01 | 0.01 | 68 | 1029.8 |
| 20260510190704 | 72 | 338 | 2.0 | 14.0 | 0.00 | 0.22 | 0.01 | 67 | 1013.2 |
| 20260510190652 | 72 | 345 | 0.0 | 5.0 | 0.00 | 0.01 | 0.01 | 68 | 1029.7 |
| 20260510190203 | 71 | 357 | 5.0 | 14.0 | 0.00 | 0.24 | 0.01 | 68 | 1013.0 |
| 20260510190149 | 71 | 337 | 0.0 | 14.0 | 0.00 | 0.01 | 0.01 | 70 | 1029.8 |
| 20260510185704 | 72 | 72 | 2.0 | 9.0 | 0.00 | 0.24 | 0.01 | 67 | 1013.1 |
| 20260510185645 | 72 | 9 | 3.0 | 8.0 | 0.00 | 0.01 | 0.01 | 67 | 1029.9 |
| 20260510185205 | 72 | 359 | 2.0 | 9.0 | 0.00 | 0.24 | 0.01 | 67 | 1013.4 |
| 20260510185144 | 72 | 25 | 0.0 | 10.0 | 0.00 | 0.01 | 0.01 | 66 | 1029.9 |
| 20260510184706 | 72 | 311 | 2.0 | 8.0 | 0.00 | 0.24 | 0.01 | 67 | 1013.3 |
| 20260510184640 | 72 | 350 | 3.0 | 7.0 | 0.00 | 0.01 | 0.01 | 68 | 1030.0 |
| 20260510184204 | 73 | 346 | 2.0 | 8.0 | 0.00 | 0.24 | 0.01 | 67 | 1013.3 |
| 20260510184136 | 73 | 330 | 2.0 | 8.0 | 0.00 | 0.01 | 0.01 | 67 | 1030.1 |
| 20260510183705 | 73 | 320 | 0.0 | 8.0 | 0.00 | 0.25 | 0.01 | 68 | 1013.3 |
| 20260510183631 | 73 | 328 | 0.0 | 0.0 | 0.00 | 0.01 | 0.01 | 68 | 1030.0 |
| 20260510183126 | 72 | 326 | 1.0 | 5.0 | 0.00 | 0.01 | 0.01 | 69 | 1030.0 |
| 20260510182705 | 72 | 302 | 1.0 | 12.0 | 0.00 | 0.26 | 0.01 | 69 | 1013.2 |
| 20260510182624 | 72 | 302 | 0.0 | 5.0 | 0.00 | 0.01 | 0.01 | 69 | 1029.9 |
| 20260510182206 | 72 | 10 | 5.0 | 13.0 | 0.00 | 0.26 | 0.01 | 68 | 1013.3 |
| 20260510182119 | 72 | 20 | 3.0 | 13.0 | 0.00 | 0.01 | 0.01 | 68 | 1030.0 |
| 20260510181703 | 72 | 298 | 2.0 | 13.0 | 0.00 | 0.26 | 0.01 | 70 | 1013.3 |
| 20260510181617 | 72 | 292 | 2.0 | 10.0 | 0.00 | 0.01 | 0.01 | 70 | 1029.9 |
| 20260510181204 | 72 | 326 | 1.0 | 14.0 | 0.00 | 0.26 | 0.01 | 69 | 1013.5 |
| 20260510181113 | 72 | 321 | 0.0 | 7.0 | 0.00 | 0.01 | 0.01 | 70 | 1030.2 |
| 20260510180704 | 74 | 24 | 5.0 | 14.0 | 0.00 | 0.26 | 0.01 | 66 | 1013.5 |
| 20260510180609 | 74 | 24 | 6.0 | 14.0 | 0.00 | 0.01 | 0.01 | 66 | 1030.1 |
| 20260510180107 | 74 | 242 | 0.0 | 3.0 | 0.00 | 0.01 | 0.01 | 64 | 1030.2 |
| 20260510175703 | 74 | 316 | 2.0 | 9.0 | 0.00 | 0.26 | 0.01 | 65 | 1013.4 |
| 20260510175603 | 74 | 311 | 3.0 | 5.0 | 0.00 | 0.01 | 0.01 | 65 | 1030.0 |
| 20260510175203 | 75 | 329 | 1.0 | 7.0 | 0.00 | 0.26 | 0.01 | 64 | 1013.4 |
| 20260510175058 | 75 | 329 | 0.0 | 5.0 | 0.00 | 0.01 | 0.01 | 64 | 1030.1 |
| 20260510174703 | 75 | 275 | 1.0 | 7.0 | 0.00 | 0.26 | 0.01 | 65 | 1013.4 |
| 20260510174557 | 75 | 283 | 1.0 | 3.0 | 0.00 | 0.01 | 0.01 | 65 | 1030.1 |
| 20260510174204 | 76 | 295 | 1.0 | 7.0 | 0.00 | 0.26 | 0.01 | 64 | 1013.5 |
| 20260510174053 | 76 | 295 | 0.0 | 7.0 | 0.00 | 0.01 | 0.01 | 64 | 1030.3 |
| 20260510173703 | 75 | 347 | 1.0 | 8.0 | 0.00 | 0.26 | 0.01 | 65 | 1013.5 |
| 20260510173548 | 75 | 5 | 1.0 | 3.0 | 0.00 | 0.01 | 0.01 | 65 | 1030.2 |
| 20260510173203 | 75 | 318 | 4.0 | 8.0 | 0.00 | 0.27 | 0.01 | 66 | 1013.3 |
| 20260510173046 | 75 | 317 | 5.0 | 8.0 | 0.00 | 0.01 | 0.01 | 66 | 1030.0 |
| 20260510172542 | 75 | 325 | 3.0 | 3.0 | 0.00 | 0.01 | 0.01 | 67 | 1029.9 |
| 20260510172204 | 75 | 250 | 1.0 | 12.0 | 0.00 | 0.27 | 0.01 | 64 | 1013.4 |
| 20260510172038 | 75 | 250 | 0.0 | 3.0 | 0.00 | 0.01 | 0.01 | 64 | 1030.1 |
| 20260510171702 | 75 | 252 | 0.0 | 1.0 | 0.00 | 0.27 | 0.01 | 67 | 1013.4 |
| 20260510171535 | 75 | 258 | 0.0 | 0.0 | 0.00 | 0.01 | 0.01 | 67 | 1030.0 |
| 20260510171203 | 73 | 309 | 0.0 | 1.0 | 0.00 | 0.28 | 0.01 | 67 | 1013.4 |
| 20260510171032 | 73 | 276 | 0.0 | 0.0 | 0.00 | 0.01 | 0.01 | 69 | 1030.2 |
| 20260510170705 | 72 | 292 | 0.0 | 7.0 | 0.00 | 0.28 | 0.01 | 69 | 1013.3 |
| 20260510170523 | 72 | 305 | 0.0 | 3.0 | 0.00 | 0.01 | 0.01 | 66 | 1030.2 |
| 20260510170020 | 73 | 263 | 0.0 | 3.0 | 0.00 | 0.01 | 0.01 | 66 | 1030.1 |
| 20260510165703 | 73 | 0 | 0.0 | 5.0 | 0.00 | 0.29 | 0.01 | 67 | 1013.2 |
| 20260510165515 | 73 | 11 | 0.0 | 3.0 | 0.00 | 0.01 | 0.01 | 69 | 1030.2 |
| 20260510165204 | 74 | 250 | 0.0 | 5.0 | 0.00 | 0.30 | 0.01 | 65 | 1013.4 |
| 20260510165012 | 74 | 270 | 0.0 | 3.0 | 0.00 | 0.01 | 0.01 | 64 | 1030.1 |
| 20260510164703 | 75 | 296 | 1.0 | 3.0 | 0.00 | 0.30 | 0.01 | 63 | 1013.4 |
| 20260510164509 | 76 | 319 | 0.0 | 3.0 | 0.00 | 0.01 | 0.01 | 65 | 1029.9 |
| 20260510164203 | 76 | 186 | 0.0 | 3.0 | 0.00 | 0.30 | 0.01 | 65 | 1013.2 |
| 20260510164004 | 76 | 243 | 0.0 | 0.0 | 0.00 | 0.01 | 0.01 | 65 | 1029.9 |
| 20260510163704 | 76 | 243 | 0.0 | 1.0 | 0.00 | 0.30 | 0.01 | 64 | 1013.1 |
| 20260510163500 | 75 | 242 | 0.0 | 0.0 | 0.00 | 0.01 | 0.01 | 65 | 1029.9 |
| 20260510163203 | 76 | 242 | 1.0 | 1.0 | 0.00 | 0.30 | 0.01 | 64 | 1013.4 |
| 20260510162956 | 76 | 242 | 0.0 | 2.0 | 0.00 | 0.01 | 0.01 | 64 | 1030.0 |
| 20260510162703 | 74 | 242 | 0.0 | 1.0 | 0.00 | 0.30 | 0.01 | 67 | 1013.3 |
| 20260510162452 | 74 | 241 | 0.0 | 2.0 | 0.00 | 0.01 | 0.01 | 67 | 1030.0 |
| 20260510162203 | 73 | 235 | 1.0 | 3.0 | 0.00 | 0.30 | 0.01 | 66 | 1013.1 |
| 20260510161943 | 72 | 190 | 0.0 | 3.0 | 0.00 | 0.01 | 0.01 | 67 | 1029.8 |
| 20260510161703 | 73 | 247 | 0.0 | 3.0 | 0.00 | 0.30 | 0.01 | 68 | 1013.2 |
| 20260510161438 | 73 | 247 | 0.0 | 2.0 | 0.00 | 0.01 | 0.01 | 66 | 1029.8 |
| 20260510160936 | 74 | 247 | 0.0 | 3.0 | 0.00 | 0.01 | 0.01 | 68 | 1029.9 |
| 20260510160704 | 74 | 247 | 0.0 | 3.0 | 0.00 | 0.31 | 0.01 | 67 | 1013.1 |
| 20260510160433 | 73 | 247 | 0.0 | 0.0 | 0.00 | 0.01 | 0.01 | 66 | 1029.9 |
| 20260510160203 | 73 | 247 | 0.0 | 5.0 | 0.00 | 0.32 | 0.01 | 70 | 1013.4 |
| 20260510155930 | 74 | 253 | 2.0 | 5.0 | 0.00 | 0.01 | 0.01 | 66 | 1029.8 |
| 20260510155703 | 74 | 253 | 1.0 | 7.0 | 0.00 | 0.33 | 0.01 | 65 | 1013.1 |
| 20260510155423 | 74 | 316 | 3.0 | 7.0 | 0.00 | 0.01 | 0.01 | 70 | 1029.9 |
| 20260510155203 | 74 | 278 | 0.0 | 3.0 | 0.00 | 0.34 | 0.01 | 68 | 1013.1 |
| 20260510154919 | 74 | 252 | 1.0 | 3.0 | 0.00 | 0.01 | 0.01 | 63 | 1029.8 |
| 20260510154703 | 73 | 338 | 1.0 | 3.0 | 0.00 | 0.34 | 0.01 | 67 | 1013.2 |
| 20260510154415 | 73 | 314 | 0.0 | 0.0 | 0.00 | 0.01 | 0.01 | 67 | 1029.7 |
| 20260510154204 | 73 | 252 | 0.0 | 3.0 | 0.00 | 0.35 | 0.01 | 66 | 1013.1 |
| 20260510153909 | 73 | 253 | 0.0 | 2.0 | 0.00 | 0.01 | 0.01 | 65 | 1029.8 |
| 20260510153703 | 73 | 280 | 2.0 | 7.0 | 0.00 | 0.36 | 0.01 | 66 | 1013.0 |
| 20260510153406 | 73 | 226 | 1.0 | 7.0 | 0.00 | 0.01 | 0.01 | 63 | 1029.8 |
| 20260510153204 | 73 | 247 | 0.0 | 7.0 | 0.00 | 0.37 | 0.01 | 65 | 1013.0 |
| 20260510152902 | 72 | 247 | 0.0 | 0.0 | 0.00 | 0.01 | 0.01 | 65 | 1029.8 |
| 20260510152400 | 72 | 247 | 0.0 | 7.0 | 0.00 | 0.01 | 0.01 | 67 | 1029.7 |
| 20260510152203 | 72 | 247 | 3.0 | 8.0 | 0.00 | 0.38 | 0.01 | 65 | 1013.2 |
| 20260510151856 | 72 | 245 | 0.0 | 2.0 | 0.00 | 0.01 | 0.01 | 67 | 1030.1 |
| 20260510151703 | 72 | 245 | 1.0 | 5.0 | 0.00 | 0.39 | 0.01 | 70 | 1013.2 |
| 20260510151354 | 72 | 245 | 0.0 | 5.0 | 0.00 | 0.01 | 0.01 | 68 | 1029.9 |
| 20260510151203 | 71 | 245 | 0.0 | 1.0 | 0.00 | 0.39 | 0.01 | 71 | 1013.0 |
| 20260510150850 | 71 | 245 | 0.0 | 0.0 | 0.00 | 0.01 | 0.01 | 67 | 1029.8 |
| 20260510150703 | 71 | 245 | 1.0 | 5.0 | 0.00 | 0.39 | 0.01 | 68 | 1013.2 |
| 20260510150345 | 71 | 245 | 0.0 | 5.0 | 0.00 | 0.01 | 0.01 | 67 | 1029.7 |
| 20260510150203 | 71 | 246 | 1.0 | 5.0 | 0.00 | 0.40 | 0.01 | 69 | 1012.9 |
| 20260510145842 | 71 | 246 | 0.0 | 5.0 | 0.00 | 0.01 | 0.01 | 71 | 1029.6 |
| 20260510145703 | 72 | 245 | 0.0 | 0.0 | 0.00 | 0.40 | 0.01 | 76 | 1013.2 |
| 20260510145338 | 71 | 245 | 0.0 | 0.0 | 0.00 | 0.01 | 0.01 | 79 | 1029.9 |
| 20260510145203 | 70 | 245 | 0.0 | 0.0 | 0.00 | 0.40 | 0.01 | 79 | 1013.2 |
| 20260510144835 | 70 | 245 | 0.0 | 0.0 | 0.00 | 0.01 | 0.01 | 78 | 1029.7 |
| 20260510144331 | 70 | 245 | 0.0 | 0.0 | 0.00 | 0.01 | 0.01 | 80 | 1030.0 |
| 20260510144203 | 69 | 245 | 0.0 | 0.0 | 0.00 | 0.41 | 0.01 | 81 | 1013.1 |
| 20260510143831 | 69 | 245 | 0.0 | 0.0 | 0.00 | 0.01 | 0.01 | 80 | 1029.8 |
| 20260510143703 | 69 | 245 | 0.0 | 0.0 | 0.00 | 0.41 | 0.01 | 86 | 1013.3 |
| 20260510143327 | 69 | 245 | 0.0 | 0.0 | 0.00 | 0.01 | 0.01 | 86 | 1030.0 |
| 20260510143203 | 69 | 245 | 0.0 | 0.0 | 0.00 | 0.41 | 0.01 | 84 | 1013.1 |
| 20260510142825 | 69 | 245 | 0.0 | 0.0 | 0.00 | 0.01 | 0.01 | 81 | 1029.8 |
| 20260510142703 | 69 | 245 | 0.0 | 0.0 | 0.00 | 0.41 | 0.01 | 82 | 1013.2 |
| 20260510142321 | 68 | 245 | 0.0 | 0.0 | 0.00 | 0.01 | 0.01 | 84 | 1030.1 |
| 20260510142203 | 68 | 244 | 0.0 | 0.0 | 0.00 | 0.41 | 0.01 | 85 | 1013.4 |
| 20260510141818 | 66 | 244 | 0.0 | 0.0 | 0.00 | 0.01 | 0.01 | 85 | 1029.7 |
| 20260510141315 | 66 | 244 | 0.0 | 0.0 | 0.00 | 0.01 | 0.01 | 86 | 1029.6 |
| 20260510141203 | 66 | 244 | 0.0 | 0.0 | 0.00 | 0.41 | 0.01 | 87 | 1013.3 |
| 20260510140812 | 65 | 244 | 0.0 | 0.0 | 0.00 | 0.01 | 0.01 | 88 | 1029.9 |
| 20260510140703 | 64 | 244 | 0.0 | 0.0 | 0.00 | 0.41 | 0.01 | 89 | 1013.3 |
| 20260510140308 | 63 | 244 | 0.0 | 0.0 | 0.00 | 0.01 | 0.01 | 91 | 1030.0 |
| 20260510140203 | 63 | 244 | 0.0 | 0.0 | 0.00 | 0.41 | 0.01 | 92 | 1013.2 |
| 20260510135801 | 62 | 244 | 0.0 | 0.0 | 0.00 | 0.01 | 0.01 | 95 | 1029.9 |
| 20260510135704 | 61 | 244 | 0.0 | 0.0 | 0.00 | 0.41 | 0.01 | 95 | 1013.1 |
| 20260510135257 | 60 | 244 | 0.0 | 0.0 | 0.00 | 0.01 | 0.01 | 96 | 1029.7 |
| 20260510135203 | 60 | 245 | 0.0 | 0.0 | 0.00 | 0.41 | 0.01 | 97 | 1013.2 |
| 20260510134755 | 60 | 244 | 0.0 | 0.0 | 0.00 | 0.01 | 0.01 | 99 | 1029.9 |
| 20260510134704 | 60 | 244 | 0.0 | 0.0 | 0.00 | 0.41 | 0.01 | 99 | 1013.4 |
| 20260510134252 | 60 | 244 | 0.0 | 0.0 | 0.00 | 0.01 | 0.01 | 99 | 1029.7 |
| 20260510134204 | 59 | 244 | 0.0 | 0.0 | 0.00 | 0.41 | 0.01 | 99 | 1013.3 |
| 20260510133748 | 59 | 244 | 0.0 | 0.0 | 0.00 | 0.01 | 0.01 | 99 | 1029.9 |
| 20260510133703 | 59 | 244 | 0.0 | 0.0 | 0.00 | 0.41 | 0.01 | 99 | 1013.3 |
| 20260510133244 | 59 | 244 | 0.0 | 0.0 | 0.00 | 0.01 | 0.01 | 99 | 1029.9 |
| 20260510132739 | 58 | 147 | 0.0 | 0.0 | 0.00 | 0.01 | 0.01 | 99 | 1029.8 |
| 20260510132704 | 58 | 234 | 0.0 | 0.0 | 0.00 | 0.41 | 0.01 | 99 | 1013.1 |
| 20260510132237 | 58 | 258 | 0.0 | 0.0 | 0.00 | 0.01 | 0.01 | 99 | 1029.8 |
| 20260510131734 | 58 | 260 | 0.0 | 0.0 | 0.00 | 0.01 | 0.01 | 99 | 1029.8 |
| 20260510131704 | 58 | 260 | 0.0 | 0.0 | 0.00 | 0.41 | 0.01 | 99 | 1013.2 |
| 20260510131232 | 56 | 279 | 0.0 | 0.0 | 0.00 | 0.01 | 0.01 | 99 | 1029.9 |
| 20260510131203 | 56 | 276 | 0.0 | 0.0 | 0.00 | 0.41 | 0.01 | 99 | 1013.2 |
| 20260510130728 | 56 | 266 | 0.0 | 0.0 | 0.00 | 0.01 | 0.01 | 99 | 1029.9 |
| 20260510130704 | 56 | 266 | 0.0 | 0.0 | 0.00 | 0.41 | 0.01 | 99 | 1013.0 |
| 20260510130226 | 55 | 266 | 0.0 | 0.0 | 0.00 | 0.01 | 0.01 | 99 | 1029.9 |
| 20260510130203 | 55 | 266 | 0.0 | 0.0 | 0.00 | 0.41 | 0.01 | 99 | 1013.2 |
| 20260510125722 | 55 | 272 | 0.0 | 0.0 | 0.00 | 0.01 | 0.01 | 99 | 1029.9 |
| 20260510125703 | 55 | 272 | 0.0 | 0.0 | 0.00 | 0.41 | 0.01 | 99 | 1013.2 |
| 20260510125218 | 54 | 268 | 0.0 | 0.0 | 0.00 | 0.01 | 0.01 | 99 | 1030.0 |
| 20260510125203 | 54 | 270 | 0.0 | 0.0 | 0.00 | 0.41 | 0.01 | 99 | 1013.2 |
| 20260510124715 | 55 | 270 | 0.0 | 0.0 | 0.00 | 0.01 | 0.01 | 99 | 1030.0 |
| 20260510124213 | 54 | 270 | 0.0 | 0.0 | 0.00 | 0.01 | 0.01 | 99 | 1030.0 |
| 20260510124203 | 54 | 269 | 0.0 | 0.0 | 0.00 | 0.41 | 0.01 | 99 | 1013.2 |
| 20260510123707 | 54 | 270 | 0.0 | 0.0 | 0.00 | 0.01 | 0.01 | 99 | 1029.8 |
| 20260510123204 | 53 | 270 | 0.0 | 0.0 | 0.00 | 0.01 | 0.01 | 99 | 1030.0 |
| 20260510122703 | 53 | 270 | 0.0 | 0.0 | 0.00 | 0.41 | 0.01 | 99 | 1013.1 |
| 20260510122700 | 53 | 270 | 0.0 | 0.0 | 0.00 | 0.01 | 0.01 | 99 | 1030.0 |
| 20260510122203 | 53 | 280 | 0.0 | 0.0 | 0.00 | 0.41 | 0.01 | 99 | 1013.0 |
| 20260510122156 | 53 | 271 | 0.0 | 0.0 | 0.00 | 0.01 | 0.01 | 99 | 1029.7 |
| 20260510121704 | 52 | 337 | 0.0 | 0.0 | 0.00 | 0.41 | 0.01 | 99 | 1013.0 |
| 20260510121648 | 52 | 337 | 0.0 | 0.0 | 0.00 | 0.01 | 0.01 | 99 | 1029.6 |
| 20260510121203 | 52 | 311 | 0.0 | 0.0 | 0.00 | 0.41 | 0.01 | 99 | 1012.8 |
| 20260510121145 | 52 | 314 | 0.0 | 0.0 | 0.00 | 0.01 | 0.01 | 99 | 1029.3 |
| 20260510120703 | 52 | 309 | 0.0 | 0.0 | 0.00 | 0.41 | 0.01 | 99 | 1012.9 |
| 20260510120642 | 52 | 309 | 0.0 | 0.0 | 0.00 | 0.01 | 0.01 | 99 | 1029.4 |
| 20260510120204 | 51 | 309 | 0.0 | 0.0 | 0.00 | 0.41 | 0.01 | 99 | 1012.7 |
| 20260510120138 | 51 | 308 | 0.0 | 0.0 | 0.00 | 0.01 | 0.01 | 99 | 1029.6 |
| 20260510115705 | 51 | 317 | 0.0 | 0.0 | 0.00 | 0.41 | 0.01 | 99 | 1012.7 |
| 20260510115634 | 51 | 317 | 0.0 | 0.0 | 0.00 | 0.01 | 0.01 | 99 | 1029.4 |
| 20260510115204 | 52 | 305 | 0.0 | 0.0 | 0.00 | 0.41 | 0.01 | 99 | 1012.7 |
| 20260510115133 | 51 | 305 | 0.0 | 0.0 | 0.00 | 0.01 | 0.01 | 99 | 1029.3 |
| 20260510114704 | 51 | 302 | 0.0 | 0.0 | 0.01 | 0.41 | 0.01 | 99 | 1012.5 |
| 20260510114628 | 51 | 301 | 0.0 | 0.0 | 0.00 | 0.01 | 0.01 | 99 | 1029.2 |
| 20260510114124 | 51 | 301 | 0.0 | 0.0 | 0.00 | 0.01 | 0.01 | 99 | 1029.2 |
| 20260510113620 | 50 | 312 | 0.0 | 3.0 | 0.00 | 0.01 | 0.01 | 99 | 1029.1 |
| 20260510113204 | 50 | 282 | 0.0 | 0.0 | 0.01 | 0.41 | 0.01 | 99 | 1012.2 |
| 20260510113117 | 50 | 282 | 0.0 | 0.0 | 0.00 | 0.01 | 0.01 | 99 | 1028.9 |
| 20260510112703 | 50 | 282 | 0.0 | 1.0 | 0.01 | 0.41 | 0.01 | 99 | 1012.2 |
| 20260510112614 | 50 | 282 | 0.0 | 0.0 | 0.00 | 0.01 | 0.01 | 99 | 1028.9 |
| 20260510112203 | 50 | 94 | 0.0 | 1.0 | 0.01 | 0.41 | 0.01 | 99 | 1012.2 |
| 20260510112110 | 50 | 94 | 0.0 | 2.0 | 0.00 | 0.01 | 0.01 | 99 | 1028.8 |
| 20260510111704 | 50 | 122 | 0.0 | 1.0 | 0.01 | 0.41 | 0.01 | 99 | 1012.3 |
| 20260510111607 | 50 | 122 | 0.0 | 0.0 | 0.00 | 0.01 | 0.01 | 99 | 1029.0 |
| 20260510111203 | 50 | 103 | 0.0 | 0.0 | 0.01 | 0.41 | 0.01 | 99 | 1012.1 |
| 20260510111102 | 50 | 102 | 0.0 | 0.0 | 0.00 | 0.01 | 0.01 | 99 | 1028.8 |
| 20260510110704 | 50 | 102 | 0.0 | 0.0 | 0.01 | 0.41 | 0.01 | 99 | 1012.2 |
| 20260510110558 | 50 | 102 | 0.0 | 0.0 | 0.00 | 0.01 | 0.01 | 99 | 1028.9 |
| 20260510110204 | 49 | 102 | 0.0 | 0.0 | 0.01 | 0.41 | 0.01 | 99 | 1012.3 |
| 20260510110055 | 50 | 102 | 0.0 | 0.0 | 0.00 | 0.01 | 0.01 | 99 | 1029.0 |
| 20260510105703 | 49 | 100 | 0.0 | 0.0 | 0.01 | 0.41 | 0.01 | 99 | 1012.1 |
| 20260510105550 | 50 | 100 | 0.0 | 0.0 | 0.07 | 0.01 | 0.01 | 99 | 1028.8 |
| 20260510105203 | 49 | 100 | 0.0 | 0.0 | 0.01 | 0.41 | 0.01 | 99 | 1012.1 |
| 20260510105039 | 50 | 100 | 0.0 | 0.0 | 0.07 | 0.01 | 0.01 | 99 | 1028.8 |
| 20260510104704 | 49 | 117 | 0.0 | 0.0 | 0.00 | 0.40 | 0.00 | 99 | 1012.0 |
| 20260510104537 | 50 | 117 | 0.0 | 0.0 | 0.00 | 0.00 | 0.00 | 99 | 1028.7 |
| 20260510104204 | 49 | 117 | 0.0 | 0.0 | 0.00 | 0.40 | 0.00 | 99 | 1012.1 |
| 20260510104033 | 49 | 117 | 0.0 | 0.0 | 0.00 | 0.00 | 0.00 | 99 | 1028.8 |
| 20260510103703 | 49 | 117 | 0.0 | 0.0 | 0.00 | 0.40 | 0.00 | 99 | 1012.2 |
| 20260510103531 | 49 | 117 | 0.0 | 0.0 | 0.00 | 0.00 | 0.00 | 99 | 1028.7 |
| 20260510103204 | 49 | 117 | 0.0 | 0.0 | 0.00 | 0.40 | 0.00 | 99 | 1012.1 |
| 20260510103026 | 49 | 117 | 0.0 | 0.0 | 0.00 | 0.00 | 0.00 | 99 | 1029.0 |
| 20260510102704 | 49 | 116 | 0.0 | 0.0 | 0.00 | 0.40 | 0.00 | 99 | 1012.1 |
| 20260510102522 | 49 | 116 | 0.0 | 0.0 | 0.00 | 0.00 | 0.00 | 99 | 1028.6 |
| 20260510102203 | 49 | 118 | 0.0 | 0.0 | 0.00 | 0.40 | 0.00 | 99 | 1011.9 |
| 20260510102019 | 49 | 306 | 0.0 | 0.0 | 0.00 | 0.00 | 0.00 | 99 | 1028.7 |
| 20260510101516 | 49 | 312 | 0.0 | 0.0 | 0.00 | 0.00 | 0.00 | 99 | 1028.7 |
| 20260510101204 | 49 | 312 | 0.0 | 0.0 | 0.00 | 0.40 | 0.00 | 99 | 1011.8 |
| 20260510101015 | 49 | 312 | 0.0 | 0.0 | 0.00 | 0.00 | 0.00 | 99 | 1028.5 |
| 20260510100705 | 49 | 312 | 0.0 | 0.0 | 0.00 | 0.40 | 0.00 | 99 | 1011.6 |
| 20260510100510 | 49 | 312 | 0.0 | 0.0 | 0.00 | 0.00 | 0.00 | 99 | 1028.6 |
| 20260510100204 | 49 | 312 | 0.0 | 0.0 | 0.00 | 0.40 | 0.00 | 99 | 1011.9 |
| 20260510100007 | 49 | 312 | 0.0 | 0.0 | 0.00 | 0.00 | 0.00 | 99 | 1028.4 |
| 20260510095703 | 49 | 312 | 0.0 | 0.0 | 0.00 | 0.40 | 0.00 | 99 | 1011.7 |
| 20260510095457 | 49 | 312 | 0.0 | 0.0 | 0.00 | 0.00 | 0.00 | 99 | 1028.5 |
| 20260510095204 | 48 | 312 | 0.0 | 0.0 | 0.00 | 0.40 | 0.00 | 99 | 1011.7 |
| 20260510094956 | 48 | 312 | 0.0 | 0.0 | 0.00 | 0.00 | 0.00 | 99 | 1028.5 |
| 20260510094451 | 49 | 313 | 0.0 | 0.0 | 0.00 | 0.00 | 0.00 | 99 | 1028.0 |
| 20260510094204 | 49 | 286 | 0.0 | 0.0 | 0.00 | 0.40 | 0.00 | 99 | 1011.5 |
| 20260510093947 | 48 | 286 | 0.0 | 0.0 | 0.00 | 0.00 | 0.00 | 99 | 1028.1 |
| 20260510093703 | 48 | 286 | 0.0 | 0.0 | 0.00 | 0.40 | 0.00 | 99 | 1011.7 |
| 20260510093442 | 48 | 286 | 0.0 | 0.0 | 0.00 | 0.00 | 0.00 | 99 | 1028.3 |
| 20260510093204 | 48 | 286 | 0.0 | 0.0 | 0.00 | 0.40 | 0.00 | 99 | 1011.4 |
| 20260510092939 | 48 | 286 | 0.0 | 0.0 | 0.00 | 0.00 | 0.00 | 99 | 1028.1 |
| 20260510092436 | 48 | 286 | 0.0 | 0.0 | 0.00 | 0.00 | 0.00 | 99 | 1028.0 |
| 20260510092203 | 48 | 286 | 0.0 | 0.0 | 0.00 | 0.40 | 0.00 | 99 | 1011.4 |
| 20260510091931 | 48 | 286 | 0.0 | 0.0 | 0.00 | 0.00 | 0.00 | 99 | 1028.2 |
| 20260510091703 | 48 | 286 | 0.0 | 0.0 | 0.00 | 0.40 | 0.00 | 99 | 1011.2 |
| 20260510091428 | 48 | 286 | 0.0 | 0.0 | 0.00 | 0.00 | 0.00 | 99 | 1028.1 |
| 20260510090924 | 49 | 286 | 0.0 | 0.0 | 0.00 | 0.00 | 0.00 | 99 | 1027.8 |
| 20260510090421 | 49 | 286 | 0.0 | 0.0 | 0.00 | 0.00 | 0.00 | 99 | 1027.9 |
| 20260510085917 | 48 | 286 | 0.0 | 0.0 | 0.00 | 0.00 | 0.00 | 99 | 1027.9 |
| 20260510085704 | 49 | 286 | 0.0 | 0.0 | 0.00 | 0.40 | 0.00 | 99 | 1011.3 |
| 20260510085412 | 49 | 285 | 0.0 | 0.0 | 0.00 | 0.00 | 0.00 | 99 | 1028.0 |
| 20260510085204 | 48 | 297 | 0.0 | 0.0 | 0.00 | 0.40 | 0.00 | 99 | 1011.1 |
| 20260510084907 | 48 | 297 | 0.0 | 0.0 | 0.00 | 0.00 | 0.00 | 99 | 1028.2 |
| 20260510084703 | 48 | 305 | 0.0 | 0.0 | 0.00 | 0.40 | 0.00 | 99 | 1011.2 |
| 20260510084406 | 48 | 275 | 0.0 | 0.0 | 0.00 | 0.00 | 0.00 | 99 | 1028.0 |
| 20260510084204 | 48 | 275 | 0.0 | 0.0 | 0.00 | 0.40 | 0.00 | 99 | 1011.4 |
| 20260510083902 | 48 | 274 | 0.0 | 0.0 | 0.00 | 0.00 | 0.00 | 99 | 1028.1 |
| 20260510083704 | 48 | 301 | 0.0 | 0.0 | 0.00 | 0.40 | 0.00 | 99 | 1011.8 |
| 20260510083358 | 48 | 276 | 0.0 | 0.0 | 0.00 | 0.00 | 0.00 | 99 | 1028.2 |
| 20260510083203 | 48 | 289 | 0.0 | 0.0 | 0.00 | 0.40 | 0.00 | 99 | 1011.6 |
| 20260510082854 | 48 | 308 | 0.0 | 0.0 | 0.00 | 0.00 | 0.00 | 99 | 1028.1 |
| 20260510082703 | 48 | 308 | 0.0 | 0.0 | 0.00 | 0.40 | 0.00 | 99 | 1011.7 |
| 20260510082351 | 48 | 341 | 0.0 | 0.0 | 0.00 | 0.00 | 0.00 | 99 | 1028.1 |
| 20260510082205 | 48 | 342 | 0.0 | 0.0 | 0.00 | 0.40 | 0.00 | 99 | 1011.5 |
| 20260510081849 | 48 | 342 | 0.0 | 0.0 | 0.00 | 0.00 | 0.00 | 99 | 1027.9 |
| 20260510081702 | 48 | 341 | 0.0 | 0.0 | 0.00 | 0.40 | 0.00 | 99 | 1011.3 |
| 20260510081345 | 48 | 342 | 0.0 | 0.0 | 0.00 | 0.00 | 0.00 | 99 | 1028.3 |
| 20260510080842 | 48 | 344 | 0.0 | 0.0 | 0.00 | 0.00 | 0.00 | 99 | 1028.1 |
| 20260510080337 | 48 | 260 | 0.0 | 0.0 | 0.00 | 0.00 | 0.00 | 99 | 1028.1 |
| 20260510080203 | 48 | 337 | 0.0 | 0.0 | 0.00 | 0.40 | 0.00 | 99 | 1011.5 |
| 20260510075834 | 47 | 342 | 0.0 | 0.0 | 0.00 | 0.00 | 0.00 | 99 | 1028.5 |
| 20260510075703 | 47 | 286 | 0.0 | 1.0 | 0.00 | 0.40 | 0.00 | 99 | 1011.4 |
| 20260510075331 | 47 | 272 | 0.0 | 0.0 | 0.00 | 0.00 | 0.00 | 99 | 1028.3 |
| 20260510074822 | 46 | 266 | 0.0 | 0.0 | 0.00 | 0.00 | 0.00 | 99 | 1028.0 |
| 20260510074703 | 46 | 327 | 0.0 | 1.0 | 0.00 | 0.40 | 0.00 | 99 | 1011.3 |
| 20260510074319 | 46 | 294 | 0.0 | 0.0 | 0.00 | 0.00 | 0.00 | 99 | 1027.7 |
| 20260510074203 | 46 | 279 | 0.0 | 0.0 | 0.00 | 0.40 | 0.00 | 99 | 1010.8 |
| 20260510073816 | 46 | 279 | 0.0 | 0.0 | 0.00 | 0.00 | 0.00 | 99 | 1027.3 |
| 20260510073703 | 46 | 280 | 0.0 | 0.0 | 0.00 | 0.40 | 0.00 | 99 | 1010.7 |
| 20260510073312 | 46 | 280 | 0.0 | 0.0 | 0.00 | 0.00 | 0.00 | 99 | 1027.4 |
| 20260510073204 | 46 | 280 | 0.0 | 0.0 | 0.00 | 0.40 | 0.00 | 99 | 1011.0 |
| 20260510072808 | 46 | 280 | 0.0 | 0.0 | 0.00 | 0.00 | 0.00 | 99 | 1027.2 |
| 20260510072703 | 46 | 280 | 0.0 | 0.0 | 0.00 | 0.40 | 0.00 | 99 | 1010.8 |
| 20260510072306 | 46 | 280 | 0.0 | 0.0 | 0.00 | 0.00 | 0.00 | 99 | 1027.2 |
| 20260510071801 | 47 | 280 | 0.0 | 0.0 | 0.00 | 0.00 | 0.00 | 99 | 1027.4 |
| 20260510071703 | 47 | 279 | 0.0 | 0.0 | 0.00 | 0.40 | 0.00 | 99 | 1010.7 |
| 20260510071257 | 47 | 279 | 0.0 | 0.0 | 0.00 | 0.00 | 0.00 | 99 | 1027.2 |
| 20260510071203 | 46 | 279 | 0.0 | 0.0 | 0.00 | 0.40 | 0.00 | 99 | 1010.7 |
| 20260510070756 | 47 | 279 | 0.0 | 0.0 | 0.00 | 0.00 | 0.00 | 99 | 1027.4 |
| 20260510070252 | 48 | 319 | 0.0 | 0.0 | 0.00 | 0.00 | 0.00 | 99 | 1027.3 |
| 20260510070203 | 48 | 319 | 0.0 | 0.0 | 0.00 | 0.40 | 0.00 | 99 | 1010.6 |
| 20260510065746 | 47 | 319 | 0.0 | 0.0 | 0.00 | 0.00 | 0.00 | 99 | 1027.4 |
| 20260510065703 | 46 | 319 | 0.0 | 0.0 | 0.00 | 0.40 | 0.00 | 99 | 1010.7 |
| 20260510065243 | 46 | 319 | 0.0 | 0.0 | 0.00 | 0.00 | 0.00 | 99 | 1027.3 |
| 20260510065204 | 45 | 318 | 0.0 | 0.0 | 0.00 | 0.40 | 0.00 | 99 | 1010.7 |
| 20260510064739 | 45 | 319 | 0.0 | 0.0 | 0.00 | 0.00 | 0.00 | 99 | 1027.4 |
| 20260510064238 | 45 | 314 | 0.0 | 0.0 | 0.00 | 0.00 | 0.00 | 99 | 1027.3 |
| 20260510063733 | 45 | 313 | 0.0 | 0.0 | 0.00 | 0.00 | 0.00 | 99 | 1027.5 |
| 20260510063704 | 45 | 313 | 0.0 | 0.0 | 0.00 | 0.40 | 0.00 | 99 | 1010.6 |
| 20260510063230 | 45 | 313 | 0.0 | 0.0 | 0.00 | 0.00 | 0.00 | 99 | 1027.3 |
| 20260510063203 | 45 | 313 | 0.0 | 0.0 | 0.00 | 0.40 | 0.00 | 99 | 1010.5 |
| 20260510062727 | 46 | 313 | 0.0 | 0.0 | 0.00 | 0.00 | 0.00 | 99 | 1027.2 |
| 20260510062703 | 46 | 313 | 0.0 | 0.0 | 0.00 | 0.40 | 0.00 | 99 | 1010.5 |
| 20260510062223 | 46 | 313 | 0.0 | 0.0 | 0.00 | 0.00 | 0.00 | 99 | 1027.3 |
| 20260510062203 | 46 | 313 | 0.0 | 0.0 | 0.00 | 0.40 | 0.00 | 99 | 1010.5 |
| 20260510061718 | 45 | 313 | 0.0 | 0.0 | 0.00 | 0.00 | 0.00 | 99 | 1026.9 |
| 20260510061703 | 45 | 313 | 0.0 | 0.0 | 0.00 | 0.40 | 0.00 | 99 | 1010.4 |
| 20260510061216 | 45 | 313 | 0.0 | 0.0 | 0.00 | 0.00 | 0.00 | 99 | 1027.0 |
| 20260510060712 | 46 | 313 | 0.0 | 0.0 | 0.00 | 0.00 | 0.00 | 99 | 1026.8 |
| 20260510060704 | 46 | 313 | 0.0 | 0.0 | 0.00 | 0.40 | 0.00 | 99 | 1010.2 |
| 20260510060208 | 46 | 313 | 0.0 | 0.0 | 0.00 | 0.00 | 0.00 | 99 | 1027.0 |
| 20260510060203 | 46 | 313 | 0.0 | 0.0 | 0.00 | 0.40 | 0.00 | 99 | 1010.3 |
| 20260510055705 | 46 | 313 | 0.0 | 0.0 | 0.00 | 0.00 | 0.00 | 99 | 1027.1 |
| 20260510055703 | 46 | 313 | 0.0 | 0.0 | 0.00 | 0.40 | 0.00 | 99 | 1010.4 |
| 20260510055204 | 46 | 313 | 0.0 | 0.0 | 0.00 | 0.40 | 0.00 | 99 | 1010.4 |
| 20260510054703 | 46 | 313 | 0.0 | 0.0 | 0.00 | 0.40 | 0.00 | 99 | 1010.8 |
| 20260510054658 | 46 | 313 | 0.0 | 0.0 | 0.00 | 0.00 | 0.00 | 99 | 1027.3 |
| 20260510054154 | 46 | 313 | 0.0 | 0.0 | 0.00 | 0.00 | 0.00 | 99 | 1027.3 |
| 20260510053703 | 46 | 313 | 0.0 | 0.0 | 0.00 | 0.40 | 0.00 | 99 | 1010.5 |
| 20260510053653 | 46 | 313 | 0.0 | 0.0 | 0.00 | 0.00 | 0.00 | 99 | 1027.1 |
| 20260510053203 | 46 | 313 | 0.0 | 0.0 | 0.00 | 0.40 | 0.00 | 99 | 1010.7 |
| 20260510053151 | 46 | 313 | 0.0 | 0.0 | 0.00 | 0.00 | 0.00 | 99 | 1027.4 |
| 20260510052704 | 47 | 313 | 0.0 | 0.0 | 0.00 | 0.40 | 0.00 | 99 | 1010.6 |
| 20260510052646 | 47 | 313 | 0.0 | 0.0 | 0.00 | 0.00 | 0.00 | 99 | 1027.5 |
| 20260510052143 | 46 | 313 | 0.0 | 0.0 | 0.00 | 0.00 | 0.00 | 99 | 1027.2 |
| 20260510051703 | 47 | 313 | 0.0 | 0.0 | 0.00 | 0.40 | 0.00 | 99 | 1010.7 |
| 20260510051638 | 47 | 313 | 0.0 | 0.0 | 0.00 | 0.00 | 0.00 | 99 | 1027.7 |
| 20260510051204 | 47 | 313 | 0.0 | 0.0 | 0.00 | 0.40 | 0.00 | 99 | 1010.6 |
| 20260510051135 | 47 | 313 | 0.0 | 0.0 | 0.00 | 0.00 | 0.00 | 99 | 1027.3 |
| 20260510050704 | 46 | 313 | 0.0 | 0.0 | 0.00 | 0.40 | 0.00 | 99 | 1010.8 |
| 20260510050632 | 46 | 313 | 0.0 | 0.0 | 0.00 | 0.00 | 0.00 | 99 | 1027.5 |
| 20260510050203 | 47 | 313 | 0.0 | 0.0 | 0.00 | 0.40 | 0.00 | 99 | 1010.9 |
| 20260510050130 | 47 | 313 | 0.0 | 0.0 | 0.00 | 0.00 | 0.00 | 99 | 1027.5 |
| 20260510045626 | 47 | 313 | 0.0 | 0.0 | 0.00 | 0.00 | 0.00 | 99 | 1027.3 |
| 20260510045204 | 47 | 313 | 0.0 | 0.0 | 0.20 | 0.40 | 0.00 | 99 | 1010.8 |
| 20260510045123 | 47 | 313 | 0.0 | 0.0 | 0.00 | 0.00 | 0.00 | 99 | 1027.4 |
| 20260510044704 | 47 | 313 | 0.0 | 0.0 | 0.20 | 0.40 | 0.00 | 99 | 1010.8 |
| 20260510044619 | 48 | 313 | 0.0 | 0.0 | 0.00 | 0.00 | 0.00 | 99 | 1027.5 |
| 20260510044203 | 47 | 313 | 0.0 | 0.0 | 0.20 | 0.40 | 0.00 | 99 | 1010.9 |
| 20260510044117 | 47 | 313 | 0.0 | 0.0 | 0.00 | 0.00 | 0.00 | 99 | 1027.5 |
| 20260510043703 | 47 | 313 | 0.0 | 0.0 | 0.20 | 0.40 | 0.00 | 99 | 1010.8 |
| 20260510043613 | 47 | 313 | 0.0 | 0.0 | 0.00 | 0.00 | 0.00 | 99 | 1027.4 |
| 20260510043205 | 48 | 313 | 0.0 | 0.0 | 0.20 | 0.40 | 0.00 | 99 | 1011.0 |
| 20260510043109 | 48 | 313 | 0.0 | 0.0 | 0.00 | 0.00 | 0.00 | 99 | 1027.6 |
| 20260510042703 | 48 | 313 | 0.0 | 0.0 | 0.20 | 0.40 | 0.00 | 99 | 1010.9 |
| 20260510042608 | 48 | 313 | 0.0 | 0.0 | 0.00 | 0.00 | 0.00 | 99 | 1027.6 |
| 20260510042203 | 48 | 313 | 0.0 | 0.0 | 0.20 | 0.40 | 0.00 | 99 | 1011.0 |
| 20260510042102 | 48 | 313 | 0.0 | 0.0 | 0.00 | 0.00 | 0.00 | 99 | 1027.6 |
| 20260510041559 | 48 | 313 | 0.0 | 0.0 | 0.00 | 0.00 | 0.00 | 99 | 1027.8 |
| 20260510041203 | 49 | 313 | 0.0 | 0.0 | 0.20 | 0.40 | 0.00 | 99 | 1011.1 |
| 20260510041057 | 49 | 313 | 0.0 | 0.0 | 0.00 | 0.00 | 0.00 | 99 | 1027.9 |
| 20260510040708 | 48 | 313 | 0.0 | 0.0 | 0.20 | 0.40 | 0.00 | 99 | 1011.0 |
| 20260510040553 | 48 | 313 | 0.0 | 0.0 | 0.00 | 0.00 | 0.00 | 99 | 1027.6 |
| 20260510040203 | 48 | 313 | 0.0 | 0.0 | 0.20 | 0.40 | 0.00 | 99 | 1011.0 |
| 20260510040049 | 48 | 313 | 0.0 | 0.0 | 0.00 | 0.20 | 0.20 | 99 | 1027.6 |
| 20260510035704 | 48 | 313 | 0.0 | 0.0 | 0.00 | 0.20 | 0.20 | 99 | 1011.0 |
| 20260510035546 | 48 | 313 | 0.0 | 0.0 | 0.00 | 0.20 | 0.20 | 99 | 1027.6 |
| 20260510035203 | 49 | 313 | 0.0 | 0.0 | 0.00 | 0.20 | 0.20 | 99 | 1011.1 |
| 20260510035045 | 49 | 313 | 0.0 | 0.0 | 0.00 | 0.20 | 0.20 | 99 | 1027.7 |
| 20260510034703 | 48 | 313 | 0.0 | 0.0 | 0.00 | 0.20 | 0.20 | 99 | 1011.1 |
| 20260510034544 | 48 | 313 | 0.0 | 0.0 | 0.00 | 0.20 | 0.20 | 99 | 1027.7 |
| 20260510034203 | 49 | 313 | 0.0 | 0.0 | 0.00 | 0.20 | 0.20 | 99 | 1011.0 |
| 20260510034041 | 49 | 313 | 0.0 | 0.0 | 0.00 | 0.20 | 0.20 | 99 | 1027.6 |
| 20260510033706 | 49 | 313 | 0.0 | 0.0 | 0.00 | 0.20 | 0.20 | 99 | 1010.9 |
| 20260510033536 | 49 | 313 | 0.0 | 0.0 | 0.00 | 0.20 | 0.20 | 99 | 1027.5 |
| 20260510033205 | 49 | 313 | 0.0 | 0.0 | 0.00 | 0.20 | 0.20 | 99 | 1011.0 |
| 20260510033035 | 49 | 313 | 0.0 | 0.0 | 0.00 | 0.20 | 0.20 | 99 | 1027.7 |
| 20260510032705 | 49 | 313 | 0.0 | 0.0 | 0.00 | 0.20 | 0.20 | 99 | 1010.9 |
| 20260510032531 | 49 | 313 | 0.0 | 0.0 | 0.00 | 0.20 | 0.20 | 99 | 1027.3 |
| 20260510032026 | 49 | 313 | 0.0 | 0.0 | 0.00 | 0.20 | 0.20 | 99 | 1027.4 |
| 20260510031703 | 50 | 313 | 0.0 | 0.0 | 0.00 | 0.20 | 0.20 | 99 | 1011.0 |
| 20260510031521 | 50 | 313 | 0.0 | 0.0 | 0.00 | 0.20 | 0.20 | 99 | 1027.5 |
| 20260510031206 | 49 | 313 | 0.0 | 0.0 | 0.00 | 0.20 | 0.20 | 99 | 1010.9 |
| 20260510031017 | 49 | 313 | 0.0 | 0.0 | 0.00 | 0.20 | 0.20 | 99 | 1027.6 |
| 20260510030703 | 50 | 313 | 0.0 | 0.0 | 0.00 | 0.20 | 0.20 | 99 | 1010.8 |
| 20260510030513 | 50 | 313 | 0.0 | 0.0 | 0.00 | 0.20 | 0.20 | 99 | 1027.4 |
| 20260510030203 | 50 | 313 | 0.0 | 0.0 | 0.00 | 0.20 | 0.20 | 99 | 1010.6 |
| 20260510030011 | 50 | 313 | 0.0 | 0.0 | 0.00 | 0.20 | 0.20 | 99 | 1027.2 |
| 20260510025703 | 50 | 313 | 0.0 | 0.0 | 0.00 | 0.20 | 0.20 | 99 | 1010.6 |
| 20260510025507 | 50 | 313 | 0.0 | 0.0 | 0.00 | 0.20 | 0.20 | 99 | 1027.2 |
| 20260510025204 | 50 | 313 | 0.0 | 0.0 | 0.00 | 0.20 | 0.20 | 99 | 1010.6 |
| 20260510025005 | 50 | 313 | 0.0 | 0.0 | 0.00 | 0.20 | 0.20 | 99 | 1027.2 |
| 20260510024704 | 50 | 313 | 0.0 | 0.0 | 0.00 | 0.20 | 0.20 | 99 | 1010.6 |
| 20260510024502 | 50 | 312 | 0.0 | 0.0 | 0.00 | 0.20 | 0.20 | 99 | 1027.2 |
| 20260510024203 | 50 | 313 | 0.0 | 0.0 | 0.00 | 0.20 | 0.20 | 99 | 1010.6 |
| 20260510023958 | 50 | 313 | 0.0 | 0.0 | 0.00 | 0.20 | 0.20 | 99 | 1027.4 |
| 20260510023705 | 50 | 313 | 0.0 | 0.0 | 0.00 | 0.20 | 0.20 | 99 | 1010.6 |
| 20260510023449 | 50 | 313 | 0.0 | 0.0 | 0.00 | 0.20 | 0.20 | 99 | 1027.2 |
| 20260510023204 | 50 | 313 | 0.0 | 0.0 | 0.00 | 0.20 | 0.20 | 99 | 1010.7 |
| 20260510022946 | 50 | 312 | 0.0 | 0.0 | 0.00 | 0.20 | 0.20 | 99 | 1027.3 |
| 20260510022703 | 50 | 312 | 0.0 | 0.0 | 0.00 | 0.20 | 0.20 | 99 | 1010.6 |
| 20260510022445 | 50 | 312 | 0.0 | 0.0 | 0.00 | 0.20 | 0.20 | 99 | 1027.3 |
| 20260510022203 | 50 | 312 | 0.0 | 0.0 | 0.00 | 0.20 | 0.20 | 99 | 1010.8 |
| 20260510021944 | 51 | 312 | 0.0 | 0.0 | 0.00 | 0.20 | 0.20 | 99 | 1027.3 |
| 20260510021703 | 51 | 313 | 0.0 | 0.0 | 0.00 | 0.20 | 0.20 | 99 | 1010.6 |
| 20260510021442 | 51 | 313 | 0.0 | 0.0 | 0.00 | 0.20 | 0.20 | 99 | 1027.3 |
| 20260510021203 | 51 | 312 | 0.0 | 0.0 | 0.00 | 0.20 | 0.20 | 99 | 1010.5 |
| 20260510020938 | 51 | 312 | 0.0 | 0.0 | 0.00 | 0.20 | 0.20 | 99 | 1027.3 |
| 20260510020433 | 51 | 312 | 0.0 | 0.0 | 0.00 | 0.20 | 0.20 | 99 | 1027.3 |
| 20260510020204 | 51 | 313 | 0.0 | 0.0 | 0.00 | 0.20 | 0.20 | 99 | 1010.7 |
| 20260510015929 | 51 | 313 | 0.0 | 0.0 | 0.00 | 0.20 | 0.20 | 99 | 1027.2 |
| 20260510015704 | 51 | 313 | 0.0 | 0.0 | 0.00 | 0.20 | 0.20 | 99 | 1010.5 |
| 20260510015425 | 52 | 312 | 0.0 | 0.0 | 0.00 | 0.20 | 0.20 | 99 | 1027.1 |
| 20260510015203 | 51 | 313 | 0.0 | 0.0 | 0.00 | 0.20 | 0.20 | 99 | 1010.7 |
| 20260510014920 | 51 | 313 | 0.0 | 0.0 | 0.00 | 0.20 | 0.20 | 99 | 1027.2 |
| 20260510014703 | 51 | 312 | 0.0 | 0.0 | 0.00 | 0.20 | 0.20 | 99 | 1010.4 |
| 20260510014418 | 51 | 313 | 0.0 | 0.0 | 0.00 | 0.20 | 0.20 | 99 | 1027.2 |
| 20260510013914 | 52 | 312 | 0.0 | 0.0 | 0.00 | 0.20 | 0.20 | 99 | 1027.1 |
| 20260510013409 | 52 | 313 | 0.0 | 0.0 | 0.00 | 0.20 | 0.20 | 99 | 1026.8 |
| 20260510013204 | 52 | 313 | 0.0 | 0.0 | 0.00 | 0.20 | 0.20 | 99 | 1010.3 |
| 20260510012905 | 52 | 313 | 0.0 | 0.0 | 0.00 | 0.20 | 0.20 | 99 | 1026.8 |
| 20260510012400 | 52 | 312 | 0.0 | 0.0 | 0.00 | 0.20 | 0.20 | 99 | 1027.2 |
| 20260510012204 | 52 | 312 | 0.0 | 0.0 | 0.00 | 0.20 | 0.20 | 99 | 1010.3 |
| 20260510011854 | 53 | 313 | 0.0 | 0.0 | 0.00 | 0.20 | 0.20 | 99 | 1027.1 |
| 20260510011704 | 52 | 313 | 0.0 | 0.0 | 0.00 | 0.20 | 0.20 | 99 | 1010.2 |
| 20260510011349 | 52 | 313 | 0.0 | 0.0 | 0.00 | 0.20 | 0.20 | 99 | 1026.8 |
| 20260510011203 | 53 | 313 | 0.0 | 0.0 | 0.00 | 0.20 | 0.20 | 99 | 1010.4 |
| 20260510010846 | 53 | 313 | 0.0 | 0.0 | 0.00 | 0.20 | 0.20 | 99 | 1026.6 |
| 20260510010705 | 53 | 313 | 0.0 | 0.0 | 0.00 | 0.20 | 0.20 | 99 | 1010.0 |
| 20260510010344 | 53 | 290 | 0.0 | 0.0 | 0.00 | 0.20 | 0.20 | 99 | 1026.8 |
| 20260510010205 | 53 | 289 | 0.0 | 0.0 | 0.00 | 0.20 | 0.20 | 99 | 1010.0 |
| 20260510005840 | 53 | 289 | 0.0 | 0.0 | 0.00 | 0.20 | 0.20 | 99 | 1026.9 |
| 20260510005704 | 53 | 289 | 0.0 | 0.0 | 0.00 | 0.20 | 0.20 | 99 | 1010.1 |
| 20260510005336 | 53 | 289 | 0.0 | 0.0 | 0.00 | 0.20 | 0.20 | 99 | 1026.9 |
| 20260510005204 | 53 | 289 | 0.0 | 0.0 | 0.00 | 0.20 | 0.20 | 99 | 1010.1 |
| 20260510004834 | 53 | 289 | 0.0 | 0.0 | 0.00 | 0.20 | 0.20 | 99 | 1026.9 |
| 20260510004704 | 53 | 289 | 0.0 | 0.0 | 0.00 | 0.20 | 0.20 | 99 | 1010.1 |
| 20260510004331 | 54 | 289 | 0.0 | 0.0 | 0.00 | 0.20 | 0.20 | 99 | 1026.6 |
| 20260510004204 | 54 | 289 | 0.0 | 0.0 | 0.00 | 0.20 | 0.20 | 99 | 1009.9 |
| 20260510003829 | 54 | 289 | 0.0 | 0.0 | 0.00 | 0.20 | 0.20 | 99 | 1026.7 |
| 20260510003705 | 54 | 289 | 0.0 | 0.0 | 0.00 | 0.20 | 0.20 | 99 | 1009.8 |
| 20260510003326 | 54 | 289 | 0.0 | 0.0 | 0.00 | 0.20 | 0.20 | 99 | 1026.5 |
| 20260510003204 | 54 | 289 | 0.0 | 0.0 | 0.00 | 0.20 | 0.20 | 99 | 1009.8 |
| 20260510002824 | 55 | 289 | 0.0 | 0.0 | 0.00 | 0.20 | 0.20 | 99 | 1026.5 |
| 20260510002703 | 55 | 289 | 0.0 | 0.0 | 0.00 | 0.20 | 0.20 | 99 | 1009.8 |
| 20260510002322 | 55 | 288 | 0.0 | 0.0 | 0.00 | 0.20 | 0.20 | 99 | 1026.4 |
| 20260510001818 | 55 | 290 | 0.0 | 0.0 | 0.00 | 0.20 | 0.20 | 99 | 1026.5 |
| 20260510001317 | 55 | 292 | 0.0 | 0.0 | 0.00 | 0.20 | 0.20 | 99 | 1026.4 |
| 20260510001204 | 55 | 275 | 0.0 | 0.0 | 0.00 | 0.20 | 0.20 | 99 | 1009.8 |
| 20260510000812 | 55 | 314 | 0.0 | 0.0 | 0.00 | 0.20 | 0.20 | 99 | 1026.6 |
| 20260510000705 | 55 | 312 | 0.0 | 0.0 | 0.00 | 0.20 | 0.20 | 99 | 1009.8 |
| 20260510000311 | 55 | 345 | 0.0 | 0.0 | 0.00 | 0.20 | 0.20 | 99 | 1026.2 |
| 20260510000204 | 56 | 338 | 0.0 | 0.0 | 0.00 | 0.20 | 0.20 | 99 | 1009.8 |
| 20260509235807 | 56 | 337 | 0.0 | 0.0 | 0.00 | 0.20 | 0.20 | 99 | 1026.3 |
| 20260509235705 | 56 | 39 | 0.0 | 0.0 | 0.00 | 0.20 | 0.20 | 99 | 1009.7 |
| 20260509235306 | 56 | 51 | 0.0 | 0.0 | 0.00 | 0.20 | 0.20 | 99 | 1026.1 |
| 20260509234759 | 56 | 352 | 0.0 | 0.0 | 0.00 | 0.20 | 0.20 | 99 | 1026.5 |
| 20260509234704 | 56 | 263 | 0.0 | 1.0 | 0.00 | 0.20 | 0.20 | 99 | 1009.7 |
| 20260509234256 | 56 | 120 | 0.0 | 0.0 | 0.00 | 0.20 | 0.20 | 99 | 1026.4 |
| 20260509234204 | 56 | 335 | 0.0 | 1.0 | 0.00 | 0.20 | 0.20 | 99 | 1009.5 |
| 20260509233754 | 57 | 279 | 0.0 | 0.0 | 0.00 | 0.20 | 0.20 | 98 | 1026.5 |
| 20260509233704 | 56 | 291 | 0.0 | 1.0 | 0.00 | 0.20 | 0.20 | 98 | 1009.9 |
| 20260509233251 | 57 | 298 | 0.0 | 0.0 | 0.00 | 0.20 | 0.20 | 98 | 1026.4 |
| 20260509232747 | 57 | 16 | 0.0 | 0.0 | 0.00 | 0.20 | 0.20 | 98 | 1026.5 |
| 20260509232704 | 57 | 347 | 0.0 | 1.0 | 0.00 | 0.20 | 0.20 | 98 | 1009.7 |
| 20260509232245 | 57 | 333 | 0.0 | 0.0 | 0.00 | 0.20 | 0.20 | 98 | 1026.2 |
| 20260509232203 | 57 | 332 | 0.0 | 0.0 | 0.00 | 0.20 | 0.20 | 98 | 1009.7 |
| 20260509231741 | 57 | 308 | 0.0 | 0.0 | 0.00 | 0.20 | 0.20 | 98 | 1026.5 |
| 20260509231238 | 57 | 33 | 0.0 | 0.0 | 0.00 | 0.20 | 0.20 | 97 | 1026.2 |
| 20260509231203 | 57 | 34 | 0.0 | 1.0 | 0.00 | 0.20 | 0.20 | 97 | 1010.0 |
| 20260509230735 | 57 | 50 | 0.0 | 2.0 | 0.00 | 0.20 | 0.20 | 97 | 1026.5 |
| 20260509230703 | 57 | 57 | 0.0 | 3.0 | 0.00 | 0.20 | 0.20 | 97 | 1009.9 |
| 20260509230232 | 57 | 79 | 0.0 | 0.0 | 0.00 | 0.20 | 0.20 | 96 | 1026.4 |
| 20260509230203 | 57 | 79 | 0.0 | 0.0 | 0.00 | 0.20 | 0.20 | 96 | 1009.8 |
| 20260509225727 | 57 | 79 | 0.0 | 0.0 | 0.00 | 0.20 | 0.20 | 96 | 1026.3 |
| 20260509225703 | 57 | 79 | 0.0 | 5.0 | 0.00 | 0.20 | 0.20 | 96 | 1009.9 |
| 20260509225224 | 58 | 253 | 0.0 | 5.0 | 0.00 | 0.20 | 0.20 | 95 | 1026.3 |
| 20260509225203 | 58 | 215 | 1.0 | 5.0 | 0.00 | 0.20 | 0.20 | 95 | 1009.7 |
| 20260509224720 | 58 | 46 | 0.0 | 0.0 | 0.00 | 0.20 | 0.20 | 94 | 1026.1 |
| 20260509224704 | 58 | 45 | 0.0 | 1.0 | 0.00 | 0.20 | 0.20 | 94 | 1009.7 |